Private Wetterstation Wechselburg
Wetterdaten: Donnerstag, 13.02.2014
Datum Zeit Temp. +2m Bodentemp. Temp.+5cm Temp. Wind Windchill X Diff Temp. Feuchte +2m Feuchte +5cm Sonnenschein Luftdruck Regen Wind Richtung Richtung Sonnenschein UV Taupunkt Windchill Windben
13.02.2014 00:00 1,5 C 12,3 C 0,7 C 1,1 C 0,3 C 0,0 C 73 % 80 % 0 % 1008,6 hPa 0,0 l/m 1,9 km/h (1 Bft) O-NO 67 0 min 0,0 UV-I -2,8 C 0,3 C 1,9 km/h (1 Bft)
13.02.2014 00:05 1,3 C 12,3 C 0,7 C 0,9 C 0,2 C 0,0 C 73 % 80 % 0 % 1008,6 hPa 0,0 l/m 1,6 km/h (1 Bft) O-NO 67 0 min 0,0 UV-I -3,0 C 0,2 C 2,4 km/h (1 Bft)
13.02.2014 00:10 1,3 C 12,3 C 0,8 C 0,9 C 0,0 C 0,0 C 74 % 80 % 0 % 1007,9 hPa 0,0 l/m 1,4 km/h (1 Bft) O-NO 67 0 min 0,0 UV-I -2,8 C 0,0 C 3,1 km/h (1 Bft)
13.02.2014 00:15 1,3 C 12,3 C 0,8 C 0,9 C 0,0 C 0,0 C 74 % 80 % 0 % 1007,9 hPa 0,0 l/m 1,6 km/h (1 Bft) O-NO 67 0 min 0,0 UV-I -2,8 C 0,0 C 2,9 km/h (1 Bft)
13.02.2014 00:20 1,3 C 12,3 C 0,8 C 0,9 C 0,1 C 0,0 C 74 % 80 % 0 % 1007,9 hPa 0,0 l/m 1,6 km/h (1 Bft) W-SW 247 0 min 0,0 UV-I -2,8 C 0,1 C 3,4 km/h (1 Bft)
13.02.2014 00:25 1,3 C 12,2 C 0,7 C 0,9 C 0,1 C 0,0 C 74 % 80 % 0 % 1007,9 hPa 0,0 l/m 1,3 km/h (1 Bft) O-NO 67 0 min 0,0 UV-I -2,8 C 0,1 C 2,3 km/h (1 Bft)
13.02.2014 00:30 1,3 C 12,2 C 0,7 C 0,9 C 0,1 C 0,0 C 74 % 80 % 0 % 1008,1 hPa 0,0 l/m 1,8 km/h (1 Bft) NO 45 0 min 0,0 UV-I -2,8 C 0,1 C 4,7 km/h (1 Bft)
13.02.2014 00:35 1,3 C 12,2 C 0,8 C 0,9 C 0,1 C 0,0 C 74 % 80 % 0 % 1008,1 hPa 0,0 l/m 2,3 km/h (1 Bft) SW 225 0 min 0,0 UV-I -2,8 C 0,1 C 2,7 km/h (1 Bft)
13.02.2014 00:41 1,5 C 12,2 C 0,9 C 1,1 C 0,3 C 0,0 C 74 % 80 % 0 % 1008,1 hPa 0,0 l/m 2,4 km/h (1 Bft) N 0 0 min 0,0 UV-I -2,6 C 0,3 C 4,8 km/h (1 Bft)
13.02.2014 01:00 1,5 C 12,2 C 0,9 C 1,1 C 0,4 C 0,0 C 74 % 79 % 0 % 1007,3 hPa 0,0 l/m 1,4 km/h (1 Bft) O-NO 67 0 min 0,0 UV-I -2,6 C 0,4 C 1,8 km/h (1 Bft)
13.02.2014 01:05 1,5 C 12,2 C 0,8 C 1,1 C 0,4 C 0,0 C 74 % 79 % 0 % 1007,3 hPa 0,0 l/m 0,6 km/h (0 Bft) O-NO 67 0 min 0,0 UV-I -2,6 C 0,4 C 0,0 km/h (0 Bft)
13.02.2014 01:10 1,3 C 12,2 C 0,9 C 1,0 C 0,4 C 0,0 C 73 % 79 % 0 % 1007,3 hPa 0,0 l/m 0,2 km/h (0 Bft) SO 135 0 min 0,0 UV-I -3,0 C 0,4 C 0,0 km/h (0 Bft)
13.02.2014 01:15 1,5 C 12,2 C 0,9 C 1,1 C 0,4 C 0,0 C 74 % 80 % 0 % 1007,3 hPa 0,0 l/m 0,5 km/h (0 Bft) O-NO 67 0 min 0,0 UV-I -2,6 C 0,4 C 2,3 km/h (1 Bft)
13.02.2014 01:20 1,5 C 12,2 C 1,1 C 1,2 C 0,6 C 0,0 C 74 % 79 % 0 % 1007,3 hPa 0,0 l/m 0,5 km/h (0 Bft) S-SW 202 0 min 0,0 UV-I -2,6 C 0,6 C 0,0 km/h (0 Bft)
13.02.2014 01:25 1,5 C 12,2 C 0,9 C 1,2 C 0,6 C 0,0 C 74 % 79 % 0 % 1007,3 hPa 0,0 l/m 0,3 km/h (0 Bft) O-NO 67 0 min 0,0 UV-I -2,6 C 0,6 C 0,0 km/h (0 Bft)
13.02.2014 01:30 1,5 C 12,2 C 0,9 C 1,3 C 0,8 C 0,0 C 74 % 80 % 0 % 1007,3 hPa 0,0 l/m 0,2 km/h (0 Bft) O 90 0 min 0,0 UV-I -2,6 C 0,8 C 1,6 km/h (1 Bft)
13.02.2014 01:35 1,5 C 12,2 C 1,1 C 1,3 C 0,8 C 0,0 C 74 % 80 % 0 % 1007,3 hPa 0,0 l/m 0,3 km/h (0 Bft) O 90 0 min 0,0 UV-I -2,6 C 0,8 C 0,0 km/h (0 Bft)
13.02.2014 01:40 1,6 C 12,2 C 1,0 C 1,4 C 1,0 C 0,0 C 74 % 80 % 0 % 1007,3 hPa 0,0 l/m 0,3 km/h (0 Bft) O-SO 112 0 min 0,0 UV-I -2,5 C 1,0 C 0,0 km/h (0 Bft)
13.02.2014 01:45 1,6 C 12,0 C 1,1 C 1,4 C 1,1 C 0,0 C 74 % 79 % 0 % 1007,3 hPa 0,0 l/m 0,2 km/h (0 Bft) S-SO 157 0 min 0,0 UV-I -2,5 C 1,1 C 0,0 km/h (0 Bft)
13.02.2014 01:50 1,9 C 12,0 C 1,5 C 1,7 C 1,3 C 0,0 C 73 % 79 % 0 % 1006,2 hPa 0,0 l/m 0,6 km/h (0 Bft) O-NO 67 0 min 0,0 UV-I -2,4 C 1,3 C 2,9 km/h (1 Bft)
13.02.2014 01:55 2,0 C 12,0 C 1,5 C 1,8 C 1,5 C 0,0 C 73 % 79 % 0 % 1006,2 hPa 0,0 l/m 0,8 km/h (0 Bft) N-NO 22 0 min 0,0 UV-I -2,3 C 1,5 C 0,0 km/h (0 Bft)
13.02.2014 02:00 2,2 C 12,0 C 1,8 C 2,1 C 1,8 C 0,0 C 72 % 78 % 0 % 1006,2 hPa 0,0 l/m 1,1 km/h (1 Bft) O 90 0 min 0,0 UV-I -2,3 C 1,8 C 3,1 km/h (1 Bft)
13.02.2014 02:05 2,4 C 12,0 C 1,9 C 2,3 C 2,0 C 0,0 C 72 % 78 % 0 % 1006,2 hPa 0,0 l/m 0,8 km/h (0 Bft) O-NO 67 0 min 0,0 UV-I -2,1 C 2,0 C 0,0 km/h (0 Bft)
13.02.2014 02:10 2,5 C 12,0 C 1,9 C 2,4 C 2,2 C 0,0 C 71 % 77 % 0 % 1005,9 hPa 0,0 l/m 0,6 km/h (0 Bft) S 180 0 min 0,0 UV-I -2,2 C 2,2 C 2,1 km/h (1 Bft)
13.02.2014 02:15 2,6 C 12,0 C 1,9 C 2,5 C 2,2 C 0,0 C 71 % 77 % 0 % 1005,9 hPa 0,0 l/m 0,6 km/h (0 Bft) O-SO 112 0 min 0,0 UV-I -2,1 C 2,2 C 0,0 km/h (0 Bft)
13.02.2014 02:20 2,6 C 12,0 C 1,9 C 2,5 C 2,2 C 0,0 C 71 % 77 % 0 % 1005,9 hPa 0,0 l/m 0,5 km/h (0 Bft) O 90 0 min 0,0 UV-I -2,1 C 2,2 C 1,8 km/h (1 Bft)
13.02.2014 02:25 2,7 C 12,0 C 1,8 C 2,5 C 2,2 C 0,0 C 70 % 77 % 0 % 1005,9 hPa 0,0 l/m 0,2 km/h (0 Bft) O 90 0 min 0,0 UV-I -2,2 C 2,2 C 0,0 km/h (0 Bft)
13.02.2014 02:30 2,7 C 12,0 C 1,9 C 2,5 C 2,2 C 0,0 C 70 % 77 % 0 % 1005,8 hPa 0,0 l/m 0,2 km/h (0 Bft) O-SO 112 0 min 0,0 UV-I -2,2 C 2,2 C 0,0 km/h (0 Bft)
13.02.2014 02:35 2,7 C 12,0 C 2,0 C 2,6 C 2,3 C 0,0 C 70 % 76 % 0 % 1005,8 hPa 0,0 l/m 0,3 km/h (0 Bft) O-SO 112 0 min 0,0 UV-I -2,2 C 2,3 C 0,0 km/h (0 Bft)
13.02.2014 02:40 2,7 C 12,0 C 1,9 C 2,5 C 2,2 C 0,0 C 69 % 76 % 0 % 1005,8 hPa 0,0 l/m 0,5 km/h (0 Bft) SW 225 0 min 0,0 UV-I -2,4 C 2,2 C 0,0 km/h (0 Bft)
13.02.2014 02:45 2,5 C 12,0 C 1,7 C 2,3 C 1,9 C 0,0 C 70 % 76 % 0 % 1005,8 hPa 0,0 l/m 0,2 km/h (0 Bft) SW 225 0 min 0,0 UV-I -2,4 C 1,9 C 0,0 km/h (0 Bft)
13.02.2014 02:50 2,3 C 12,0 C 1,5 C 2,1 C 1,6 C 0,0 C 70 % 77 % 0 % 1005,6 hPa 0,0 l/m 0,0 km/h (0 Bft) SW 225 0 min 0,0 UV-I -2,6 C 1,6 C 0,0 km/h (0 Bft)
13.02.2014 02:55 2,1 C 12,0 C 1,3 C 1,9 C 1,5 C 0,0 C 70 % 77 % 0 % 1005,6 hPa 0,0 l/m 0,0 km/h (0 Bft) SW 225 0 min 0,0 UV-I -2,8 C 1,5 C 0,0 km/h (0 Bft)
13.02.2014 03:00 2,0 C 12,0 C 1,2 C 1,8 C 1,4 C 0,0 C 70 % 78 % 0 % 1005,6 hPa 0,0 l/m 0,0 km/h (0 Bft) SO 135 0 min 0,0 UV-I -2,9 C 1,4 C 0,0 km/h (0 Bft)
13.02.2014 03:05 1,9 C 12,0 C 1,2 C 1,7 C 1,4 C 0,0 C 71 % 78 % 0 % 1005,6 hPa 0,0 l/m 0,0 km/h (0 Bft) SW 225 0 min 0,0 UV-I -2,8 C 1,4 C 0,0 km/h (0 Bft)
13.02.2014 03:10 2,1 C 12,0 C 1,5 C 1,9 C 1,5 C 0,0 C 71 % 78 % 0 % 1005,6 hPa 0,0 l/m 0,5 km/h (0 Bft) S-SW 202 0 min 0,0 UV-I -2,6 C 1,5 C 0,0 km/h (0 Bft)
13.02.2014 03:15 2,2 C 12,0 C 1,6 C 2,1 C 1,8 C 0,0 C 70 % 78 % 0 % 1005,6 hPa 0,0 l/m 1,0 km/h (0 Bft) SW 225 0 min 0,0 UV-I -2,7 C 1,8 C 2,1 km/h (1 Bft)
13.02.2014 03:20 2,5 C 12,0 C 2,3 C 2,4 C 2,3 C 0,0 C 70 % 77 % 0 % 1005,6 hPa 0,0 l/m 1,1 km/h (1 Bft) S 180 0 min 0,0 UV-I -2,4 C 2,3 C 7,7 km/h (2 Bft)
13.02.2014 03:25 2,8 C 12,0 C 2,7 C 2,8 C 2,8 C 0,0 C 69 % 75 % 0 % 1005,6 hPa 0,0 l/m 2,1 km/h (1 Bft) W 270 0 min 0,0 UV-I -2,3 C 2,8 C 3,1 km/h (1 Bft)
13.02.2014 03:30 3,4 C 12,0 C 3,1 C 3,4 C 3,4 C 0,0 C 67 % 74 % 0 % 1005,8 hPa 0,0 l/m 3,1 km/h (1 Bft) O-SO 112 0 min 0,0 UV-I -2,1 C 3,4 C 11,3 km/h (2 Bft)
13.02.2014 03:35 3,9 C 12,0 C 3,3 C 3,9 C 3,8 C 0,0 C 66 % 72 % 0 % 1005,8 hPa 0,0 l/m 2,9 km/h (1 Bft) S 180 0 min 0,0 UV-I -1,9 C 3,8 C 5,3 km/h (1 Bft)
13.02.2014 03:40 4,3 C 12,0 C 3,7 C 4,2 C 3,9 C 0,0 C 64 % 71 % 0 % 1005,8 hPa 0,0 l/m 3,9 km/h (1 Bft) S 180 0 min 0,0 UV-I -1,9 C 3,9 C 5,0 km/h (1 Bft)
13.02.2014 03:45 4,4 C 12,0 C 3,9 C 4,4 C 4,3 C 0,0 C 63 % 70 % 0 % 1005,8 hPa 0,0 l/m 3,5 km/h (1 Bft) SW 225 0 min 0,0 UV-I -2,0 C 4,3 C 3,1 km/h (1 Bft)
13.02.2014 03:50 4,6 C 12,0 C 4,0 C 4,7 C 4,7 C 0,1 C 62 % 69 % 0 % 1006,4 hPa 0,0 l/m 3,2 km/h (1 Bft) S 180 0 min 0,0 UV-I -2,0 C 4,7 C 7,4 km/h (2 Bft)
13.02.2014 03:55 4,9 C 12,0 C 4,1 C 4,8 C 4,7 C 0,0 C 61 % 68 % 0 % 1006,4 hPa 0,0 l/m 3,9 km/h (1 Bft) S-SO 157 0 min 0,0 UV-I -2,0 C 4,7 C 8,2 km/h (2 Bft)
13.02.2014 04:00 5,1 C 12,0 C 4,3 C 4,8 C 4,3 C 0,0 C 60 % 67 % 0 % 1006,4 hPa 0,0 l/m 5,3 km/h (1 Bft) SO 135 0 min 0,0 UV-I -2,0 C 3,2 C 8,9 km/h (2 Bft)
13.02.2014 04:05 5,2 C 12,0 C 4,5 C 4,9 C 4,4 C 0,0 C 60 % 67 % 0 % 1006,4 hPa 0,0 l/m 5,3 km/h (1 Bft) S-SO 157 0 min 0,0 UV-I -1,9 C 3,3 C 7,9 km/h (2 Bft)
13.02.2014 04:10 5,5 C 12,0 C 4,5 C 5,2 C 4,5 C 0,0 C 58 % 67 % 0 % 1005,6 hPa 0,0 l/m 6,1 km/h (2 Bft) SW 225 0 min 0,0 UV-I -2,1 C 3,1 C 13,7 km/h (3 Bft)
13.02.2014 04:15 5,7 C 12,0 C 4,7 C 5,3 C 4,4 C 0,0 C 58 % 66 % 0 % 1005,6 hPa 0,0 l/m 6,4 km/h (2 Bft) W 270 0 min 0,0 UV-I -1,9 C 2,9 C 2,9 km/h (1 Bft)
13.02.2014 04:20 5,9 C 12,0 C 4,9 C 5,5 C 4,7 C 0,0 C 57 % 66 % 0 % 1005,6 hPa 0,0 l/m 7,1 km/h (2 Bft) S-SO 157 0 min 0,0 UV-I -2,0 C 3,0 C 15,0 km/h (3 Bft)
13.02.2014 04:25 6,0 C 11,9 C 5,1 C 5,6 C 4,8 C 0,0 C 57 % 65 % 0 % 1005,6 hPa 0,0 l/m 7,1 km/h (2 Bft) NW 315 0 min 0,0 UV-I -1,9 C 3,1 C 6,6 km/h (2 Bft)
13.02.2014 04:30 6,3 C 11,9 C 5,1 C 5,8 C 4,9 C 0,0 C 57 % 65 % 0 % 1005,2 hPa 0,0 l/m 7,4 km/h (2 Bft) O-SO 112 0 min 0,0 UV-I -1,6 C 3,2 C 15,4 km/h (3 Bft)
13.02.2014 04:35 6,3 C 11,9 C 5,2 C 5,8 C 4,8 C 0,0 C 57 % 65 % 0 % 1005,2 hPa 0,0 l/m 7,4 km/h (2 Bft) W-SW 247 0 min 0,0 UV-I -1,6 C 3,1 C 10,8 km/h (2 Bft)
13.02.2014 04:40 6,2 C 11,9 C 5,2 C 5,7 C 4,7 C 0,0 C 58 % 65 % 0 % 1005,2 hPa 0,0 l/m 7,6 km/h (2 Bft) S-SO 157 0 min 0,0 UV-I -1,4 C 2,9 C 12,2 km/h (2 Bft)
13.02.2014 04:45 6,3 C 11,9 C 5,3 C 5,8 C 4,7 C 0,0 C 58 % 65 % 0 % 1005,2 hPa 0,0 l/m 7,7 km/h (2 Bft) NO 45 0 min 0,0 UV-I -1,3 C 2,9 C 5,0 km/h (1 Bft)
13.02.2014 04:50 6,3 C 11,9 C 5,2 C 5,9 C 5,0 C 0,0 C 58 % 66 % 0 % 1005,7 hPa 0,0 l/m 6,0 km/h (2 Bft) S 180 0 min 0,0 UV-I -1,3 C 3,7 C 19,5 km/h (3 Bft)
13.02.2014 04:55 6,3 C 11,9 C 5,3 C 5,8 C 4,8 C 0,0 C 58 % 66 % 0 % 1005,7 hPa 0,0 l/m 6,4 km/h (2 Bft) S-SO 157 0 min 0,0 UV-I -1,3 C 3,4 C 6,9 km/h (2 Bft)
13.02.2014 05:00 6,2 C 11,9 C 5,2 C 5,7 C 4,7 C 0,0 C 59 % 66 % 0 % 1005,7 hPa 0,0 l/m 6,8 km/h (2 Bft) O-SO 112 0 min 0,0 UV-I -1,2 C 3,1 C 2,9 km/h (1 Bft)
13.02.2014 05:05 6,1 C 11,9 C 5,2 C 5,6 C 4,7 C 0,0 C 59 % 66 % 0 % 1005,7 hPa 0,0 l/m 7,1 km/h (2 Bft) S-SO 157 0 min 0,0 UV-I -1,3 C 3,0 C 10,9 km/h (2 Bft)
13.02.2014 05:10 6,0 C 11,9 C 5,1 C 5,5 C 4,4 C 0,0 C 60 % 67 % 0 % 1005,6 hPa 0,0 l/m 6,9 km/h (2 Bft) SW 225 0 min 0,0 UV-I -1,2 C 2,7 C 5,3 km/h (1 Bft)
13.02.2014 05:15 6,0 C 11,9 C 5,1 C 5,6 C 4,2 C 0,0 C 60 % 68 % 0 % 1005,6 hPa 0,0 l/m 7,7 km/h (2 Bft) S 180 0 min 0,0 UV-I -1,2 C 2,3 C 11,7 km/h (2 Bft)
13.02.2014 05:20 6,0 C 11,9 C 5,2 C 5,6 C 4,1 C 0,0 C 62 % 69 % 0 % 1005,6 hPa 0,0 l/m 8,0 km/h (2 Bft) S-SO 157 0 min 0,0 UV-I -0,7 C 2,1 C 12,2 km/h (2 Bft)
13.02.2014 05:25 6,0 C 11,9 C 5,2 C 5,5 C 3,9 C 0,0 C 63 % 69 % 0 % 1005,6 hPa 0,0 l/m 8,5 km/h (2 Bft) SO 135 0 min 0,0 UV-I -0,5 C 1,7 C 10,5 km/h (2 Bft)
13.02.2014 05:30 5,9 C 11,9 C 5,1 C 5,4 C 4,0 C 0,0 C 63 % 70 % 0 % 1005,2 hPa 0,0 l/m 7,9 km/h (2 Bft) SO 135 0 min 0,0 UV-I -0,6 C 2,0 C 9,5 km/h (2 Bft)
13.02.2014 05:35 5,9 C 11,9 C 5,1 C 5,3 C 4,1 C 0,0 C 64 % 70 % 0 % 1005,2 hPa 0,0 l/m 7,1 km/h (2 Bft) W 270 0 min 0,0 UV-I -0,4 C 2,3 C 9,8 km/h (2 Bft)
13.02.2014 05:40 5,7 C 11,9 C 5,1 C 5,2 C 4,1 C 0,0 C 65 % 71 % 0 % 1005,2 hPa 0,0 l/m 6,6 km/h (2 Bft) S-SO 157 0 min 0,0 UV-I -0,4 C 2,5 C 10,5 km/h (2 Bft)
13.02.2014 05:45 5,7 C 11,9 C 5,1 C 5,1 C 3,9 C 0,0 C 65 % 71 % 0 % 1005,2 hPa 0,0 l/m 7,1 km/h (2 Bft) S-SO 157 0 min 0,0 UV-I -0,4 C 2,1 C 10,1 km/h (2 Bft)
13.02.2014 05:50 5,6 C 11,9 C 5,1 C 5,0 C 3,9 C 0,0 C 66 % 72 % 0 % 1005,2 hPa 0,0 l/m 6,8 km/h (2 Bft) SO 135 0 min 0,0 UV-I -0,2 C 2,2 C 8,4 km/h (2 Bft)
13.02.2014 05:55 5,6 C 11,9 C 5,1 C 5,0 C 3,9 C 0,0 C 66 % 72 % 0 % 1005,2 hPa 0,0 l/m 7,2 km/h (2 Bft) O-SO 112 0 min 0,0 UV-I -0,2 C 2,1 C 8,7 km/h (2 Bft)
13.02.2014 06:00 5,7 C 11,9 C 5,1 C 5,2 C 4,1 C 0,0 C 66 % 72 % 0 % 1005,2 hPa 0,0 l/m 6,8 km/h (2 Bft) S 180 0 min 0,0 UV-I -0,1 C 2,4 C 5,8 km/h (2 Bft)
13.02.2014 06:05 5,6 C 11,9 C 5,0 C 5,2 C 4,4 C 0,0 C 67 % 73 % 0 % 1005,2 hPa 0,0 l/m 5,6 km/h (1 Bft) S-SO 157 0 min 0,0 UV-I -0,0 C 3,2 C 8,0 km/h (2 Bft)
13.02.2014 06:10 5,5 C 11,9 C 4,9 C 5,1 C 4,3 C 0,0 C 68 % 73 % 0 % 1005,2 hPa 0,0 l/m 5,6 km/h (1 Bft) O 90 0 min 0,0 UV-I 0,1 C 3,1 C 3,5 km/h (1 Bft)
13.02.2014 06:15 5,5 C 11,9 C 5,0 C 5,1 C 4,2 C 0,0 C 68 % 73 % 0 % 1005,2 hPa 0,0 l/m 5,6 km/h (1 Bft) S 180 0 min 0,0 UV-I 0,1 C 2,9 C 4,7 km/h (1 Bft)
13.02.2014 06:20 5,5 C 11,9 C 4,9 C 5,1 C 4,3 C 0,0 C 69 % 73 % 0 % 1005,2 hPa 0,0 l/m 5,3 km/h (1 Bft) S 180 0 min 0,0 UV-I 0,3 C 3,2 C 8,9 km/h (2 Bft)
13.02.2014 06:25 5,4 C 11,9 C 5,0 C 5,0 C 4,3 C 0,0 C 69 % 73 % 0 % 1005,2 hPa 0,0 l/m 5,1 km/h (1 Bft) O-NO 67 0 min 0,0 UV-I 0,2 C 3,2 C 5,6 km/h (1 Bft)
13.02.2014 06:30 5,5 C 12,0 C 4,9 C 5,2 C 4,7 C 0,0 C 69 % 74 % 0 % 1005,2 hPa 0,0 l/m 4,3 km/h (1 Bft) O-NO 67 0 min 0,0 UV-I 0,3 C 4,7 C 1,6 km/h (1 Bft)
13.02.2014 06:35 5,4 C 12,0 C 5,0 C 5,1 C 4,4 C 0,0 C 69 % 74 % 0 % 1005,2 hPa 0,0 l/m 4,8 km/h (1 Bft) S 180 0 min 0,0 UV-I 0,2 C 3,5 C 7,6 km/h (2 Bft)
13.02.2014 06:42 5,5 C 12,0 C 5,0 C 5,3 C 4,8 C 0,0 C 69 % 74 % 0 % 1005,2 hPa 0,0 l/m 4,2 km/h (1 Bft) N 0 0 min 0,0 UV-I 0,3 C 4,8 C 6,3 km/h (2 Bft)
13.02.2014 06:59 5,3 C 12,0 C 4,9 C 4,8 C 3,8 C 0,0 C 71 % 75 % 0 % 1005,9 hPa 0,0 l/m 6,6 km/h (2 Bft) W-SW 247 0 min 0,0 UV-I 0,5 C 2,1 C 13,4 km/h (3 Bft)
13.02.2014 07:00 5,3 C 12,0 C 4,9 C 4,8 C 3,8 C 0,0 C 71 % 75 % 0 % 1005,9 hPa 0,0 l/m 6,6 km/h (2 Bft) W-SW 247 0 min 0,0 UV-I 0,5 C 2,1 C 13,4 km/h (3 Bft)
13.02.2014 07:05 5,3 C 12,0 C 4,9 C 5,0 C 3,6 C 0,0 C 71 % 75 % 0 % 1005,9 hPa 0,0 l/m 8,0 km/h (2 Bft) W-SW 247 0 min 0,0 UV-I 0,5 C 1,5 C 9,8 km/h (2 Bft)
13.02.2014 07:10 5,3 C 12,0 C 5,0 C 4,8 C 3,7 C 0,0 C 71 % 75 % 0 % 1005,8 hPa 0,0 l/m 7,6 km/h (2 Bft) N-NW 337 0 min 0,0 UV-I 0,5 C 1,7 C 3,7 km/h (1 Bft)
13.02.2014 07:15 5,2 C 12,0 C 4,9 C 4,8 C 3,9 C 0,0 C 71 % 76 % 0 % 1005,8 hPa 0,0 l/m 6,4 km/h (2 Bft) W-SW 247 0 min 0,0 UV-I 0,4 C 2,3 C 16,7 km/h (3 Bft)
13.02.2014 07:20 5,2 C 12,0 C 4,8 C 4,9 C 4,2 C 0,0 C 72 % 76 % 0 % 1005,8 hPa 0,0 l/m 5,6 km/h (1 Bft) O-NO 67 0 min 0,0 UV-I 0,6 C 2,9 C 8,0 km/h (2 Bft)
13.02.2014 07:25 5,2 C 12,0 C 4,8 C 4,8 C 4,1 C 0,0 C 72 % 77 % 0 % 1005,8 hPa 0,0 l/m 5,8 km/h (2 Bft) S-SO 157 0 min 0,0 UV-I 0,6 C 2,8 C 5,0 km/h (1 Bft)
13.02.2014 07:30 5,1 C 12,0 C 4,9 C 4,8 C 4,3 C 0,0 C 73 % 77 % 0 % 1005,8 hPa 0,0 l/m 5,0 km/h (1 Bft) W-SW 247 0 min 0,0 UV-I 0,7 C 3,3 C 7,1 km/h (2 Bft)
13.02.2014 07:35 5,1 C 12,0 C 4,7 C 4,9 C 4,6 C 0,0 C 73 % 77 % 0 % 1005,8 hPa 0,0 l/m 4,2 km/h (1 Bft) S-SO 157 0 min 0,0 UV-I 0,7 C 4,6 C 5,0 km/h (1 Bft)
13.02.2014 07:40 5,1 C 12,1 C 4,4 C 4,8 C 4,2 C 0,0 C 73 % 77 % 0 % 1005,8 hPa 0,0 l/m 4,0 km/h (1 Bft) O-SO 112 0 min 0,0 UV-I 0,7 C 4,2 C 0,0 km/h (0 Bft)
13.02.2014 07:45 4,9 C 12,1 C 4,3 C 4,7 C 4,2 C 0,0 C 73 % 77 % 0 % 1005,8 hPa 0,0 l/m 3,2 km/h (1 Bft) S-SW 202 0 min 0,0 UV-I 0,5 C 4,2 C 0,0 km/h (0 Bft)
13.02.2014 07:50 4,8 C 12,1 C 4,0 C 4,5 C 3,8 C 0,0 C 73 % 78 % 0 % 1005,8 hPa 0,0 l/m 1,6 km/h (1 Bft) W 270 0 min 0,0 UV-I 0,4 C 3,8 C 1,6 km/h (1 Bft)
13.02.2014 07:55 4,7 C 12,1 C 4,0 C 4,3 C 3,6 C 0,0 C 73 % 78 % 0 % 1005,8 hPa 0,0 l/m 1,3 km/h (1 Bft) S 180 0 min 0,0 UV-I 0,3 C 3,6 C 5,1 km/h (1 Bft)
13.02.2014 08:00 4,5 C 12,1 C 3,7 C 4,1 C 3,3 C 0,0 C 73 % 78 % 0 % 1005,8 hPa 0,0 l/m 0,8 km/h (0 Bft) SW 225 0 min 0,0 UV-I 0,1 C 3,3 C 0,0 km/h (0 Bft)
13.02.2014 08:05 4,5 C 12,1 C 3,6 C 4,0 C 3,1 C 0,0 C 74 % 79 % 0 % 1005,8 hPa 0,0 l/m 1,0 km/h (0 Bft) SW 225 0 min 0,0 UV-I 0,3 C 3,1 C 2,6 km/h (1 Bft)
13.02.2014 08:10 4,4 C 12,2 C 3,4 C 4,0 C 3,1 C 0,0 C 74 % 79 % 0 % 1005,4 hPa 0,0 l/m 0,8 km/h (0 Bft) O-NO 67 0 min 0,0 UV-I 0,2 C 3,1 C 1,9 km/h (1 Bft)
13.02.2014 08:15 4,3 C 12,1 C 3,5 C 3,9 C 3,2 C 0,0 C 75 % 79 % 0 % 1005,4 hPa 0,0 l/m 0,5 km/h (0 Bft) S 180 0 min 0,0 UV-I 0,3 C 3,2 C 0,0 km/h (0 Bft)
13.02.2014 08:20 4,3 C 12,2 C 3,3 C 4,0 C 3,3 C 0,0 C 75 % 80 % 0 % 1005,4 hPa 0,0 l/m 0,3 km/h (0 Bft) O-NO 67 0 min 0,0 UV-I 0,3 C 3,3 C 1,6 km/h (1 Bft)
13.02.2014 08:25 4,3 C 12,2 C 3,3 C 4,0 C 3,3 C 0,0 C 75 % 80 % 0 % 1005,4 hPa 0,0 l/m 0,6 km/h (0 Bft) S-SW 202 0 min 0,0 UV-I 0,3 C 3,3 C 2,9 km/h (1 Bft)
13.02.2014 08:30 4,3 C 12,2 C 3,5 C 4,1 C 3,7 C 0,0 C 76 % 81 % 0 % 1005,4 hPa 0,0 l/m 1,9 km/h (1 Bft) SO 135 0 min 0,0 UV-I 0,5 C 3,7 C 4,5 km/h (1 Bft)
13.02.2014 08:35 4,4 C 12,2 C 3,5 C 4,1 C 3,6 C 0,0 C 76 % 81 % 0 % 1005,4 hPa 0,0 l/m 3,2 km/h (1 Bft) S-SO 157 0 min 0,0 UV-I 0,5 C 3,6 C 6,9 km/h (2 Bft)
13.02.2014 08:40 4,5 C 12,2 C 4,0 C 4,2 C 3,7 C 0,0 C 77 % 81 % 0 % 1005,4 hPa 0,0 l/m 4,3 km/h (1 Bft) SO 135 0 min 0,0 UV-I 0,8 C 3,7 C 6,8 km/h (2 Bft)
13.02.2014 08:45 4,6 C 12,2 C 4,4 C 4,5 C 4,3 C 0,0 C 77 % 81 % 0 % 1005,4 hPa 0,0 l/m 4,5 km/h (1 Bft) S-SO 157 0 min 0,0 UV-I 0,9 C 4,3 C 1,8 km/h (1 Bft)
13.02.2014 08:50 4,7 C 12,2 C 4,4 C 4,9 C 4,9 C 0,2 C 76 % 80 % 5 % 1005,3 hPa 0,0 l/m 3,7 km/h (1 Bft) O-SO 112 0 min 0,0 UV-I 0,8 C 4,9 C 0,0 km/h (0 Bft)
13.02.2014 08:55 4,9 C 12,2 C 4,3 C 4,9 C 4,8 C 0,0 C 76 % 80 % 0 % 1005,3 hPa 0,0 l/m 3,5 km/h (1 Bft) S 180 0 min 0,0 UV-I 1,0 C 4,8 C 0,0 km/h (0 Bft)
13.02.2014 09:00 4,8 C 12,2 C 4,7 C 5,1 C 5,1 C 0,3 C 76 % 80 % 8 % 1005,3 hPa 0,0 l/m 2,9 km/h (1 Bft) S-SO 157 0 min 0,0 UV-I 0,9 C 5,1 C 4,5 km/h (1 Bft)
13.02.2014 09:05 4,9 C 12,2 C 5,3 C 5,5 C 5,5 C 0,6 C 76 % 80 % 16 % 1005,3 hPa 0,0 l/m 2,4 km/h (1 Bft) S 180 0 min 0,0 UV-I 1,0 C 5,5 C 4,5 km/h (1 Bft)
13.02.2014 09:10 5,2 C 12,2 C 5,9 C 6,5 C 6,5 C 1,3 C 76 % 78 % 34 % 1005,1 hPa 0,0 l/m 4,5 km/h (1 Bft) S-SW 202 0 min 0,0 UV-I 1,3 C 6,5 C 8,9 km/h (2 Bft)
13.02.2014 09:15 5,3 C 12,1 C 6,0 C 5,8 C 5,8 C 0,5 C 76 % 77 % 13 % 1005,1 hPa 0,0 l/m 5,8 km/h (2 Bft) SO 135 0 min 0,0 UV-I 1,4 C 4,7 C 8,7 km/h (2 Bft)
13.02.2014 09:20 5,5 C 12,1 C 6,3 C 5,4 C 5,2 C 0,0 C 75 % 77 % 0 % 1005,1 hPa 0,0 l/m 6,0 km/h (2 Bft) S-SO 157 0 min 0,0 UV-I 1,4 C 4,0 C 6,1 km/h (2 Bft)
13.02.2014 09:25 5,6 C 12,1 C 6,3 C 5,5 C 5,3 C 0,0 C 75 % 76 % 0 % 1005,1 hPa 0,0 l/m 5,5 km/h (1 Bft) S 180 0 min 0,0 UV-I 1,5 C 4,2 C 6,1 km/h (2 Bft)
13.02.2014 09:30 5,9 C 12,1 C 6,2 C 5,8 C 5,6 C 0,0 C 74 % 76 % 0 % 1005,2 hPa 0,0 l/m 5,1 km/h (1 Bft) S 180 0 min 0,0 UV-I 1,6 C 4,7 C 7,6 km/h (2 Bft)
13.02.2014 09:35 5,9 C 12,1 C 6,3 C 5,9 C 5,9 C 0,0 C 74 % 76 % 0 % 1005,2 hPa 0,0 l/m 5,0 km/h (1 Bft) S 180 0 min 0,0 UV-I 1,6 C 5,1 C 9,3 km/h (2 Bft)
13.02.2014 09:40 6,0 C 12,1 C 6,0 C 6,0 C 5,9 C 0,0 C 74 % 76 % 0 % 1005,2 hPa 0,0 l/m 5,3 km/h (1 Bft) S-SO 157 0 min 0,0 UV-I 1,7 C 5,0 C 4,0 km/h (1 Bft)
13.02.2014 09:45 6,1 C 12,1 C 6,0 C 6,2 C 6,2 C 0,1 C 74 % 76 % 3 % 1005,2 hPa 0,0 l/m 4,8 km/h (1 Bft) S-SO 157 0 min 0,0 UV-I 1,8 C 5,5 C 6,6 km/h (2 Bft)
13.02.2014 09:50 6,3 C 12,2 C 5,9 C 6,8 C 6,8 C 0,5 C 73 % 76 % 13 % 1004,5 hPa 0,0 l/m 3,9 km/h (1 Bft) S 180 0 min 0,0 UV-I 1,8 C 6,8 C 3,7 km/h (1 Bft)
13.02.2014 09:55 6,4 C 12,2 C 6,1 C 7,0 C 7,0 C 0,6 C 73 % 76 % 16 % 1004,5 hPa 0,0 l/m 4,7 km/h (1 Bft) W-SW 247 0 min 0,0 UV-I 1,9 C 6,5 C 10,5 km/h (2 Bft)
13.02.2014 10:00 6,4 C 12,2 C 5,9 C 7,9 C 7,9 C 1,5 C 73 % 77 % 39 % 1004,5 hPa 0,0 l/m 4,2 km/h (1 Bft) S-SW 202 0 min 0,0 UV-I 1,9 C 7,9 C 5,0 km/h (1 Bft)
13.02.2014 10:05 6,5 C 12,2 C 6,1 C 9,1 C 9,1 C 2,6 C 73 % 77 % 68 % 1004,5 hPa 0,0 l/m 4,0 km/h (1 Bft) S 180 0 min 0,0 UV-I 2,0 C 9,1 C 9,7 km/h (2 Bft)
13.02.2014 10:10 6,7 C 12,2 C 6,1 C 7,9 C 7,9 C 1,2 C 73 % 76 % 32 % 1004,6 hPa 0,0 l/m 4,5 km/h (1 Bft) S 180 0 min 0,0 UV-I 2,2 C 7,9 C 8,7 km/h (2 Bft)
13.02.2014 10:15 6,8 C 12,2 C 6,3 C 7,0 C 7,0 C 0,2 C 71 % 76 % 5 % 1004,6 hPa 0,0 l/m 6,1 km/h (2 Bft) W 270 0 min 0,0 UV-I 1,9 C 6,0 C 13,7 km/h (3 Bft)
13.02.2014 10:20 6,9 C 12,1 C 6,4 C 6,9 C 6,9 C 0,0 C 71 % 76 % 0 % 1004,6 hPa 0,0 l/m 6,3 km/h (2 Bft) NO 45 0 min 0,0 UV-I 2,0 C 5,8 C 5,3 km/h (1 Bft)
13.02.2014 10:25 7,1 C 12,2 C 6,5 C 7,2 C 7,2 C 0,1 C 71 % 75 % 3 % 1004,6 hPa 0,0 l/m 5,0 km/h (1 Bft) SO 135 0 min 0,0 UV-I 2,2 C 6,6 C 3,5 km/h (1 Bft)
13.02.2014 10:30 7,1 C 12,2 C 6,5 C 7,2 C 7,2 C 0,1 C 71 % 76 % 3 % 1004,4 hPa 0,0 l/m 5,0 km/h (1 Bft) SW 225 0 min 0,0 UV-I 2,2 C 6,6 C 9,0 km/h (2 Bft)
13.02.2014 10:35 7,2 C 12,2 C 6,7 C 7,1 C 6,9 C 0,0 C 71 % 76 % 0 % 1004,4 hPa 0,0 l/m 6,4 km/h (2 Bft) SO 135 0 min 0,0 UV-I 2,3 C 5,8 C 11,3 km/h (2 Bft)
13.02.2014 10:40 7,3 C 12,2 C 6,8 C 7,3 C 6,7 C 0,0 C 71 % 75 % 0 % 1004,4 hPa 0,0 l/m 9,0 km/h (2 Bft) O-SO 112 0 min 0,0 UV-I 2,4 C 4,9 C 24,5 km/h (4 Bft)
13.02.2014 10:45 7,3 C 12,3 C 6,9 C 7,2 C 6,4 C 0,0 C 70 % 75 % 0 % 1004,4 hPa 0,0 l/m 10,8 km/h (2 Bft) S 180 0 min 0,0 UV-I 2,2 C 4,2 C 12,4 km/h (3 Bft)
13.02.2014 10:50 7,5 C 12,3 C 6,8 C 7,4 C 6,9 C 0,0 C 71 % 75 % 0 % 1004,4 hPa 0,0 l/m 8,9 km/h (2 Bft) O-SO 112 0 min 0,0 UV-I 2,6 C 5,2 C 5,8 km/h (2 Bft)
13.02.2014 10:55 7,5 C 12,3 C 7,1 C 7,4 C 7,2 C 0,0 C 70 % 75 % 0 % 1004,4 hPa 0,0 l/m 7,1 km/h (2 Bft) O-NO 67 0 min 0,0 UV-I 2,4 C 5,9 C 7,2 km/h (2 Bft)
13.02.2014 11:00 7,6 C 12,3 C 7,0 C 7,9 C 7,9 C 0,3 C 70 % 75 % 8 % 1004,4 hPa 0,0 l/m 6,1 km/h (2 Bft) SW 225 0 min 0,0 UV-I 2,5 C 7,0 C 9,0 km/h (2 Bft)
13.02.2014 11:05 7,6 C 12,3 C 7,1 C 7,8 C 7,8 C 0,2 C 70 % 74 % 5 % 1004,4 hPa 0,0 l/m 6,9 km/h (2 Bft) S 180 0 min 0,0 UV-I 2,5 C 6,7 C 13,2 km/h (3 Bft)
13.02.2014 11:10 7,6 C 12,3 C 7,1 C 8,0 C 7,6 C 0,4 C 70 % 74 % 11 % 1004,1 hPa 0,0 l/m 7,7 km/h (2 Bft) SO 135 0 min 0,0 UV-I 2,5 C 6,3 C 14,6 km/h (3 Bft)
13.02.2014 11:15 7,8 C 12,3 C 7,2 C 7,8 C 7,8 C 0,0 C 69 % 74 % 0 % 1004,1 hPa 0,0 l/m 7,4 km/h (2 Bft) N-NO 22 0 min 0,0 UV-I 2,5 C 6,6 C 1,9 km/h (1 Bft)
13.02.2014 11:20 7,8 C 12,3 C 7,2 C 8,3 C 8,3 C 0,5 C 69 % 74 % 13 % 1004,1 hPa 0,0 l/m 6,4 km/h (2 Bft) O-NO 67 0 min 0,0 UV-I 2,5 C 7,4 C 4,0 km/h (1 Bft)
13.02.2014 11:25 7,9 C 12,3 C 7,2 C 8,0 C 8,0 C 0,1 C 68 % 73 % 3 % 1004,1 hPa 0,0 l/m 7,1 km/h (2 Bft) NO 45 0 min 0,0 UV-I 2,4 C 6,9 C 5,8 km/h (2 Bft)
13.02.2014 11:30 7,9 C 12,3 C 7,3 C 7,9 C 7,2 C 0,0 C 69 % 74 % 0 % 1004,2 hPa 0,0 l/m 9,0 km/h (2 Bft) S-SO 157 0 min 0,0 UV-I 2,6 C 5,5 C 10,1 km/h (2 Bft)
13.02.2014 11:35 7,9 C 12,3 C 7,3 C 7,9 C 7,6 C 0,0 C 68 % 73 % 0 % 1004,2 hPa 0,0 l/m 8,5 km/h (2 Bft) S 180 0 min 0,0 UV-I 2,4 C 6,1 C 10,1 km/h (2 Bft)
13.02.2014 11:40 8,0 C 12,4 C 7,3 C 8,3 C 8,3 C 0,3 C 68 % 73 % 8 % 1004,2 hPa 0,0 l/m 7,1 km/h (2 Bft) SO 135 0 min 0,0 UV-I 2,5 C 7,2 C 10,9 km/h (2 Bft)
13.02.2014 11:45 8,1 C 12,4 C 7,3 C 9,0 C 9,0 C 0,9 C 67 % 72 % 24 % 1004,2 hPa 0,0 l/m 6,1 km/h (2 Bft) SO 135 0 min 0,0 UV-I 2,3 C 8,3 C 2,7 km/h (1 Bft)
13.02.2014 11:50 8,3 C 12,4 C 7,5 C 8,6 C 8,6 C 0,3 C 67 % 73 % 8 % 1003,4 hPa 0,0 l/m 6,4 km/h (2 Bft) W-SW 247 0 min 0,0 UV-I 2,5 C 7,8 C 8,7 km/h (2 Bft)
13.02.2014 11:55 8,3 C 12,4 C 7,5 C 9,1 C 9,1 C 0,8 C 67 % 72 % 21 % 1003,4 hPa 0,0 l/m 7,1 km/h (2 Bft) SW 225 0 min 0,0 UV-I 2,5 C 8,2 C 6,1 km/h (2 Bft)
13.02.2014 12:00 8,3 C 12,4 C 7,5 C 9,3 C 9,3 C 1,0 C 67 % 71 % 26 % 1003,4 hPa 0,0 l/m 6,8 km/h (2 Bft) W-SW 247 0 min 0,0 UV-I 2,5 C 8,5 C 2,3 km/h (1 Bft)
13.02.2014 12:05 8,1 C 12,4 C 7,5 C 8,7 C 8,7 C 0,6 C 66 % 72 % 16 % 1003,4 hPa 0,0 l/m 7,4 km/h (2 Bft) W-SW 247 0 min 0,0 UV-I 2,1 C 7,6 C 8,9 km/h (2 Bft)
13.02.2014 12:10 8,1 C 12,4 C 7,6 C 9,1 C 9,1 C 1,0 C 67 % 72 % 26 % 1003,3 hPa 0,0 l/m 6,9 km/h (2 Bft) S-SO 157 0 min 0,0 UV-I 2,3 C 8,2 C 10,3 km/h (2 Bft)
13.02.2014 12:15 8,3 C 12,5 C 8,0 C 9,8 C 9,8 C 1,5 C 67 % 72 % 39 % 1003,3 hPa 0,0 l/m 6,0 km/h (2 Bft) W 270 0 min 0,0 UV-I 2,5 C 9,2 C 7,2 km/h (2 Bft)
13.02.2014 12:20 8,4 C 12,5 C 8,4 C 11,1 C 11,1 C 2,7 C 67 % 71 % 71 % 1003,3 hPa 0,0 l/m 5,3 km/h (1 Bft) SO 135 0 min 0,0 UV-I 2,6 C 11,1 C 6,6 km/h (2 Bft)
13.02.2014 12:25 8,5 C 12,5 C 8,5 C 11,6 C 11,6 C 3,1 C 67 % 70 % 82 % 1003,3 hPa 0,0 l/m 4,5 km/h (1 Bft) S 180 0 min 0,0 UV-I 2,7 C 11,6 C 4,8 km/h (1 Bft)
13.02.2014 12:30 8,7 C 12,5 C 8,7 C 11,7 C 11,7 C 3,0 C 66 % 70 % 79 % 1003,1 hPa 0,0 l/m 5,1 km/h (1 Bft) SW 225 0 min 0,0 UV-I 2,7 C 11,7 C 3,9 km/h (1 Bft)
13.02.2014 12:35 8,6 C 12,5 C 8,5 C 11,8 C 11,8 C 3,2 C 66 % 70 % 84 % 1003,1 hPa 0,0 l/m 4,8 km/h (1 Bft) S-SO 157 0 min 0,0 UV-I 2,6 C 11,8 C 2,6 km/h (1 Bft)
13.02.2014 12:41 8,7 C 12,5 C 8,5 C 11,4 C 11,4 C 2,7 C 65 % 69 % 71 % 1003,1 hPa 0,0 l/m 4,7 km/h (1 Bft) N 0 0 min 0,0 UV-I 2,5 C 11,4 C 3,4 km/h (1 Bft)
13.02.2014 12:59 8,8 C 12,6 C 9,1 C 11,3 C 11,3 C 2,5 C 64 % 68 % 66 % 1002,1 hPa 0,0 l/m 4,2 km/h (1 Bft) O-SO 112 0 min 0,0 UV-I 2,4 C 11,3 C 4,5 km/h (1 Bft)
13.02.2014 13:00 8,8 C 12,6 C 9,1 C 11,3 C 11,3 C 2,5 C 64 % 68 % 66 % 1002,1 hPa 0,0 l/m 4,2 km/h (1 Bft) O-SO 112 0 min 0,0 UV-I 2,4 C 11,3 C 4,5 km/h (1 Bft)
13.02.2014 13:05 8,8 C 12,6 C 9,1 C 11,2 C 11,2 C 2,4 C 64 % 68 % 63 % 1002,1 hPa 0,0 l/m 4,3 km/h (1 Bft) SO 135 0 min 0,0 UV-I 2,4 C 11,2 C 4,7 km/h (1 Bft)
13.02.2014 13:10 9,0 C 12,6 C 9,3 C 11,3 C 11,3 C 2,3 C 64 % 68 % 61 % 1001,8 hPa 0,0 l/m 3,2 km/h (1 Bft) SO 135 0 min 0,0 UV-I 2,6 C 11,3 C 6,4 km/h (2 Bft)
13.02.2014 13:15 9,1 C 12,7 C 9,2 C 11,2 C 11,2 C 2,1 C 64 % 67 % 55 % 1001,8 hPa 0,0 l/m 3,7 km/h (1 Bft) NW 315 0 min 0,0 UV-I 2,7 C 11,2 C 5,3 km/h (1 Bft)
13.02.2014 13:20 9,1 C 12,7 C 9,2 C 11,2 C 11,2 C 2,1 C 63 % 67 % 55 % 1001,8 hPa 0,0 l/m 3,4 km/h (1 Bft) S 180 0 min 0,0 UV-I 2,4 C 11,2 C 4,5 km/h (1 Bft)
13.02.2014 13:25 9,1 C 12,7 C 9,3 C 11,2 C 11,2 C 2,1 C 63 % 66 % 55 % 1001,8 hPa 0,0 l/m 2,6 km/h (1 Bft) O-SO 112 0 min 0,0 UV-I 2,4 C 11,2 C 4,7 km/h (1 Bft)
13.02.2014 13:30 9,1 C 12,7 C 9,3 C 11,0 C 11,0 C 1,9 C 63 % 66 % 50 % 1001,1 hPa 0,0 l/m 3,1 km/h (1 Bft) S-SW 202 0 min 0,0 UV-I 2,4 C 11,0 C 8,5 km/h (2 Bft)
13.02.2014 13:35 9,1 C 12,7 C 9,2 C 10,7 C 10,7 C 1,6 C 63 % 67 % 42 % 1001,1 hPa 0,0 l/m 2,4 km/h (1 Bft) O 90 0 min 0,0 UV-I 2,4 C 10,7 C 2,3 km/h (1 Bft)
13.02.2014 13:40 9,1 C 12,7 C 9,1 C 10,4 C 10,4 C 1,3 C 62 % 66 % 34 % 1001,1 hPa 0,0 l/m 2,4 km/h (1 Bft) O-SO 112 0 min 0,0 UV-I 2,2 C 10,4 C 2,9 km/h (1 Bft)
13.02.2014 13:45 8,9 C 12,8 C 9,1 C 10,3 C 10,3 C 1,4 C 62 % 66 % 37 % 1001,1 hPa 0,0 l/m 2,7 km/h (1 Bft) SO 135 0 min 0,0 UV-I 2,0 C 10,3 C 0,0 km/h (0 Bft)
13.02.2014 13:50 9,0 C 12,8 C 8,9 C 10,0 C 10,0 C 1,0 C 62 % 66 % 26 % 1000,3 hPa 0,0 l/m 1,6 km/h (1 Bft) NO 45 0 min 0,0 UV-I 2,1 C 10,0 C 0,0 km/h (0 Bft)
13.02.2014 13:55 8,9 C 12,8 C 8,8 C 9,9 C 9,9 C 1,0 C 62 % 66 % 26 % 1000,3 hPa 0,0 l/m 0,5 km/h (0 Bft) S 180 0 min 0,0 UV-I 2,0 C 9,9 C 2,7 km/h (1 Bft)
13.02.2014 14:00 9,0 C 12,8 C 8,8 C 9,9 C 9,9 C 0,9 C 61 % 66 % 24 % 1000,3 hPa 0,0 l/m 1,1 km/h (1 Bft) O-NO 67 0 min 0,0 UV-I 1,9 C 9,9 C 1,8 km/h (1 Bft)
13.02.2014 14:05 9,0 C 12,8 C 8,8 C 9,9 C 9,9 C 0,9 C 61 % 66 % 24 % 1000,3 hPa 0,0 l/m 1,1 km/h (1 Bft) O 90 0 min 0,0 UV-I 1,9 C 9,9 C 0,0 km/h (0 Bft)
13.02.2014 14:10 9,1 C 12,8 C 8,8 C 9,8 C 9,8 C 0,7 C 60 % 66 % 18 % 1000,0 hPa 0,0 l/m 1,0 km/h (0 Bft) O-NO 67 0 min 0,0 UV-I 1,8 C 9,8 C 0,0 km/h (0 Bft)
13.02.2014 14:15 9,1 C 12,8 C 8,7 C 9,7 C 9,7 C 0,6 C 60 % 65 % 16 % 1000,0 hPa 0,0 l/m 0,8 km/h (0 Bft) S-SO 157 0 min 0,0 UV-I 1,8 C 9,7 C 0,0 km/h (0 Bft)
13.02.2014 14:20 9,0 C 12,9 C 8,7 C 9,7 C 9,7 C 0,7 C 61 % 66 % 18 % 1000,0 hPa 0,0 l/m 0,8 km/h (0 Bft) SO 135 0 min 0,0 UV-I 1,9 C 9,7 C 2,6 km/h (1 Bft)
13.02.2014 14:25 8,9 C 12,9 C 8,7 C 9,6 C 9,6 C 0,7 C 61 % 65 % 18 % 1000,0 hPa 0,0 l/m 1,4 km/h (1 Bft) NO 45 0 min 0,0 UV-I 1,8 C 9,6 C 3,7 km/h (1 Bft)
13.02.2014 14:30 8,9 C 12,9 C 8,6 C 9,4 C 9,4 C 0,5 C 61 % 66 % 13 % 998,9 hPa 0,0 l/m 2,4 km/h (1 Bft) O-NO 67 0 min 0,0 UV-I 1,8 C 9,4 C 0,0 km/h (0 Bft)
13.02.2014 14:35 8,8 C 12,9 C 8,5 C 9,3 C 9,3 C 0,5 C 61 % 66 % 13 % 998,9 hPa 0,0 l/m 2,9 km/h (1 Bft) O-NO 67 0 min 0,0 UV-I 1,7 C 9,3 C 4,7 km/h (1 Bft)
13.02.2014 14:40 8,9 C 12,9 C 8,5 C 9,3 C 9,3 C 0,4 C 61 % 66 % 11 % 998,9 hPa 0,0 l/m 1,6 km/h (1 Bft) O-NO 67 0 min 0,0 UV-I 1,8 C 9,3 C 4,7 km/h (1 Bft)
13.02.2014 14:45 8,8 C 12,9 C 8,5 C 9,3 C 9,3 C 0,5 C 61 % 65 % 13 % 998,9 hPa 0,0 l/m 1,6 km/h (1 Bft) O 90 0 min 0,0 UV-I 1,7 C 9,3 C 0,0 km/h (0 Bft)
13.02.2014 14:50 8,8 C 12,9 C 8,4 C 9,2 C 9,2 C 0,4 C 61 % 66 % 11 % 998,4 hPa 0,0 l/m 3,4 km/h (1 Bft) NO 45 0 min 0,0 UV-I 1,7 C 9,2 C 13,7 km/h (3 Bft)
13.02.2014 14:55 8,7 C 12,9 C 8,3 C 8,8 C 8,8 C 0,1 C 61 % 66 % 3 % 998,4 hPa 0,0 l/m 4,7 km/h (1 Bft) O 90 0 min 0,0 UV-I 1,6 C 8,5 C 11,3 km/h (2 Bft)
13.02.2014 15:00 8,5 C 13,0 C 8,2 C 8,4 C 8,3 C 0,0 C 61 % 66 % 0 % 998,4 hPa 0,0 l/m 5,6 km/h (1 Bft) O-NO 67 0 min 0,0 UV-I 1,4 C 7,6 C 5,5 km/h (1 Bft)
13.02.2014 15:05 8,5 C 13,0 C 8,0 C 8,4 C 8,3 C 0,0 C 62 % 67 % 0 % 998,4 hPa 0,0 l/m 5,0 km/h (1 Bft) SO 135 0 min 0,0 UV-I 1,6 C 7,8 C 3,4 km/h (1 Bft)
13.02.2014 15:10 8,4 C 13,0 C 8,0 C 8,4 C 8,4 C 0,0 C 63 % 67 % 0 % 998,7 hPa 0,0 l/m 3,9 km/h (1 Bft) SO 135 0 min 0,0 UV-I 1,8 C 8,4 C 0,0 km/h (0 Bft)
13.02.2014 15:15 8,3 C 13,0 C 7,9 C 8,4 C 8,4 C 0,1 C 63 % 68 % 3 % 998,7 hPa 0,0 l/m 2,3 km/h (1 Bft) SW 225 0 min 0,0 UV-I 1,7 C 8,4 C 1,8 km/h (1 Bft)
13.02.2014 15:20 8,2 C 13,0 C 7,7 C 8,3 C 8,3 C 0,1 C 63 % 68 % 3 % 998,7 hPa 0,0 l/m 1,4 km/h (1 Bft) O-NO 67 0 min 0,0 UV-I 1,6 C 8,3 C 2,1 km/h (1 Bft)
13.02.2014 15:25 8,1 C 13,0 C 7,7 C 8,1 C 8,1 C 0,0 C 63 % 68 % 0 % 998,7 hPa 0,0 l/m 2,4 km/h (1 Bft) S-SW 202 0 min 0,0 UV-I 1,5 C 8,1 C 7,7 km/h (2 Bft)
13.02.2014 15:30 8,1 C 13,0 C 7,6 C 8,1 C 8,0 C 0,0 C 63 % 69 % 0 % 999,9 hPa 0,0 l/m 3,2 km/h (1 Bft) SO 135 0 min 0,0 UV-I 1,5 C 8,0 C 8,7 km/h (2 Bft)
13.02.2014 15:35 8,0 C 13,0 C 7,5 C 8,0 C 7,9 C 0,0 C 63 % 69 % 0 % 999,9 hPa 0,0 l/m 3,5 km/h (1 Bft) SO 135 0 min 0,0 UV-I 1,4 C 7,9 C 2,4 km/h (1 Bft)
13.02.2014 15:40 7,9 C 13,0 C 7,4 C 7,9 C 7,9 C 0,0 C 63 % 68 % 0 % 999,9 hPa 0,0 l/m 2,6 km/h (1 Bft) O-NO 67 0 min 0,0 UV-I 1,3 C 7,9 C 3,4 km/h (1 Bft)
13.02.2014 15:45 7,8 C 13,0 C 7,3 C 7,8 C 7,7 C 0,0 C 63 % 69 % 0 % 999,9 hPa 0,0 l/m 2,7 km/h (1 Bft) O-NO 67 0 min 0,0 UV-I 1,2 C 7,7 C 2,4 km/h (1 Bft)
13.02.2014 15:50 7,6 C 13,0 C 7,2 C 7,6 C 7,6 C 0,0 C 64 % 69 % 0 % 999,6 hPa 0,0 l/m 2,6 km/h (1 Bft) O-NO 67 0 min 0,0 UV-I 1,2 C 7,6 C 2,4 km/h (1 Bft)
13.02.2014 15:55 7,6 C 13,0 C 7,1 C 7,5 C 7,4 C 0,0 C 64 % 69 % 0 % 999,6 hPa 0,0 l/m 1,8 km/h (1 Bft) O 90 0 min 0,0 UV-I 1,2 C 7,4 C 2,3 km/h (1 Bft)
13.02.2014 16:00 7,4 C 13,0 C 6,9 C 7,3 C 7,2 C 0,0 C 65 % 70 % 0 % 999,6 hPa 0,0 l/m 1,9 km/h (1 Bft) O 90 0 min 0,0 UV-I 1,3 C 7,2 C 2,4 km/h (1 Bft)
13.02.2014 16:05 7,3 C 13,0 C 6,9 C 7,2 C 7,1 C 0,0 C 65 % 70 % 0 % 999,6 hPa 0,0 l/m 2,3 km/h (1 Bft) O-NO 67 0 min 0,0 UV-I 1,2 C 7,1 C 3,1 km/h (1 Bft)
13.02.2014 16:10 7,2 C 13,0 C 6,8 C 7,1 C 7,0 C 0,0 C 65 % 70 % 0 % 999,4 hPa 0,0 l/m 2,1 km/h (1 Bft) O-SO 112 0 min 0,0 UV-I 1,1 C 7,0 C 2,4 km/h (1 Bft)
13.02.2014 16:15 7,2 C 13,0 C 6,7 C 7,1 C 6,9 C 0,0 C 66 % 70 % 0 % 999,4 hPa 0,0 l/m 1,9 km/h (1 Bft) W-SW 247 0 min 0,0 UV-I 1,3 C 6,9 C 3,7 km/h (1 Bft)
13.02.2014 16:20 7,0 C 13,0 C 6,7 C 6,9 C 6,8 C 0,0 C 66 % 71 % 0 % 999,4 hPa 0,0 l/m 2,1 km/h (1 Bft) NO 45 0 min 0,0 UV-I 1,1 C 6,8 C 2,6 km/h (1 Bft)
13.02.2014 16:25 7,1 C 13,1 C 6,7 C 7,0 C 6,8 C 0,0 C 67 % 71 % 0 % 999,4 hPa 0,0 l/m 2,3 km/h (1 Bft) O 90 0 min 0,0 UV-I 1,4 C 6,8 C 1,8 km/h (1 Bft)
13.02.2014 16:30 6,9 C 13,1 C 6,5 C 6,8 C 6,6 C 0,0 C 67 % 72 % 0 % 998,9 hPa 0,0 l/m 2,3 km/h (1 Bft) O-NO 67 0 min 0,0 UV-I 1,2 C 6,6 C 3,9 km/h (1 Bft)
13.02.2014 16:35 6,9 C 13,1 C 6,5 C 6,8 C 6,6 C 0,0 C 68 % 72 % 0 % 998,9 hPa 0,0 l/m 1,9 km/h (1 Bft) O-SO 112 0 min 0,0 UV-I 1,4 C 6,6 C 1,9 km/h (1 Bft)
13.02.2014 16:40 6,8 C 13,1 C 6,5 C 6,7 C 6,6 C 0,0 C 68 % 73 % 0 % 998,9 hPa 0,0 l/m 2,4 km/h (1 Bft) NO 45 0 min 0,0 UV-I 1,3 C 6,6 C 3,4 km/h (1 Bft)
13.02.2014 16:45 6,7 C 13,1 C 6,4 C 6,7 C 6,6 C 0,0 C 68 % 72 % 0 % 998,9 hPa 0,0 l/m 2,6 km/h (1 Bft) O-NO 67 0 min 0,0 UV-I 1,2 C 6,6 C 6,9 km/h (2 Bft)
13.02.2014 16:50 6,7 C 13,1 C 6,3 C 6,7 C 6,6 C 0,0 C 68 % 73 % 0 % 998,5 hPa 0,0 l/m 2,6 km/h (1 Bft) O-NO 67 0 min 0,0 UV-I 1,2 C 6,6 C 5,1 km/h (1 Bft)
13.02.2014 16:55 6,7 C 13,1 C 6,4 C 6,7 C 6,6 C 0,0 C 68 % 73 % 0 % 998,5 hPa 0,0 l/m 2,3 km/h (1 Bft) N-NO 22 0 min 0,0 UV-I 1,2 C 6,6 C 1,9 km/h (1 Bft)
13.02.2014 17:00 6,7 C 13,1 C 6,3 C 6,7 C 6,6 C 0,0 C 68 % 73 % 0 % 998,5 hPa 0,0 l/m 1,8 km/h (1 Bft) N-NO 22 0 min 0,0 UV-I 1,2 C 6,6 C 1,6 km/h (1 Bft)
13.02.2014 17:05 6,7 C 13,1 C 6,4 C 6,7 C 6,6 C 0,0 C 69 % 73 % 0 % 998,5 hPa 0,0 l/m 1,4 km/h (1 Bft) O 90 0 min 0,0 UV-I 1,4 C 6,6 C 0,0 km/h (0 Bft)
13.02.2014 17:10 6,7 C 13,1 C 6,3 C 6,7 C 6,6 C 0,0 C 69 % 73 % 0 % 998,1 hPa 0,0 l/m 1,9 km/h (1 Bft) O-NO 67 0 min 0,0 UV-I 1,4 C 6,6 C 2,6 km/h (1 Bft)
13.02.2014 17:15 6,7 C 13,1 C 6,4 C 6,7 C 6,6 C 0,0 C 69 % 74 % 0 % 998,1 hPa 0,0 l/m 2,3 km/h (1 Bft) O-NO 67 0 min 0,0 UV-I 1,4 C 6,6 C 3,5 km/h (1 Bft)
13.02.2014 17:20 6,7 C 13,1 C 6,4 C 6,7 C 6,6 C 0,0 C 69 % 73 % 0 % 998,1 hPa 0,0 l/m 2,6 km/h (1 Bft) O-NO 67 0 min 0,0 UV-I 1,4 C 6,6 C 1,8 km/h (1 Bft)
13.02.2014 17:25 6,7 C 13,1 C 6,5 C 6,7 C 6,6 C 0,0 C 69 % 74 % 0 % 998,1 hPa 0,0 l/m 3,1 km/h (1 Bft) O-NO 67 0 min 0,0 UV-I 1,4 C 6,6 C 7,9 km/h (2 Bft)
13.02.2014 17:30 6,7 C 13,1 C 6,3 C 6,6 C 6,4 C 0,0 C 70 % 74 % 0 % 997,8 hPa 0,0 l/m 4,0 km/h (1 Bft) O-NO 67 0 min 0,0 UV-I 1,6 C 6,4 C 8,7 km/h (2 Bft)
13.02.2014 17:35 6,7 C 13,1 C 6,3 C 6,5 C 6,2 C 0,0 C 70 % 75 % 0 % 997,8 hPa 0,0 l/m 4,7 km/h (1 Bft) O-SO 112 0 min 0,0 UV-I 1,6 C 5,6 C 5,3 km/h (1 Bft)
13.02.2014 17:40 6,6 C 13,1 C 6,1 C 6,3 C 5,8 C 0,0 C 70 % 75 % 0 % 997,8 hPa 0,0 l/m 5,1 km/h (1 Bft) O-NO 67 0 min 0,0 UV-I 1,5 C 5,0 C 5,8 km/h (2 Bft)
13.02.2014 17:45 6,7 C 13,2 C 6,1 C 6,4 C 5,8 C 0,0 C 70 % 75 % 0 % 997,8 hPa 0,0 l/m 5,3 km/h (1 Bft) NO 45 0 min 0,0 UV-I 1,6 C 4,9 C 10,1 km/h (2 Bft)
13.02.2014 17:50 6,5 C 13,2 C 6,0 C 6,2 C 5,7 C 0,0 C 71 % 75 % 0 % 997,1 hPa 0,0 l/m 5,3 km/h (1 Bft) O-NO 67 0 min 0,0 UV-I 1,6 C 4,8 C 6,1 km/h (2 Bft)
13.02.2014 17:55 6,4 C 13,2 C 6,0 C 6,2 C 5,7 C 0,0 C 71 % 76 % 0 % 997,1 hPa 0,0 l/m 5,1 km/h (1 Bft) O-NO 67 0 min 0,0 UV-I 1,5 C 4,8 C 4,3 km/h (1 Bft)
13.02.2014 18:00 6,5 C 13,3 C 5,9 C 6,1 C 5,3 C 0,0 C 72 % 76 % 0 % 997,1 hPa 0,0 l/m 5,0 km/h (1 Bft) O 90 0 min 0,0 UV-I 1,8 C 4,4 C 5,5 km/h (1 Bft)
13.02.2014 18:05 6,4 C 13,3 C 5,9 C 5,9 C 4,9 C 0,0 C 72 % 77 % 0 % 997,1 hPa 0,0 l/m 5,0 km/h (1 Bft) O-NO 67 0 min 0,0 UV-I 1,7 C 4,0 C 7,9 km/h (2 Bft)
13.02.2014 18:10 6,3 C 13,3 C 5,8 C 5,9 C 5,2 C 0,0 C 72 % 77 % 0 % 996,5 hPa 0,0 l/m 4,2 km/h (1 Bft) O 90 0 min 0,0 UV-I 1,6 C 5,2 C 0,0 km/h (0 Bft)
13.02.2014 18:15 6,3 C 13,3 C 5,7 C 6,1 C 5,8 C 0,0 C 72 % 77 % 0 % 996,5 hPa 0,0 l/m 3,1 km/h (1 Bft) NO 45 0 min 0,0 UV-I 1,6 C 5,8 C 3,5 km/h (1 Bft)
13.02.2014 18:20 6,1 C 13,3 C 5,7 C 6,0 C 5,8 C 0,0 C 73 % 78 % 0 % 996,5 hPa 0,0 l/m 1,1 km/h (1 Bft) N-NO 22 0 min 0,0 UV-I 1,6 C 5,8 C 0,0 km/h (0 Bft)
13.02.2014 18:25 6,1 C 13,3 C 5,6 C 6,0 C 5,8 C 0,0 C 73 % 78 % 0 % 996,5 hPa 0,0 l/m 1,1 km/h (1 Bft) O-NO 67 0 min 0,0 UV-I 1,6 C 5,8 C 3,9 km/h (1 Bft)
13.02.2014 18:30 6,3 C 13,2 C 5,9 C 6,2 C 6,1 C 0,0 C 73 % 78 % 0 % 996,3 hPa 0,0 l/m 2,4 km/h (1 Bft) O-NO 67 0 min 0,0 UV-I 1,8 C 6,1 C 2,9 km/h (1 Bft)
13.02.2014 18:35 6,4 C 13,2 C 6,1 C 6,4 C 6,4 C 0,0 C 73 % 77 % 0 % 996,3 hPa 0,0 l/m 3,1 km/h (1 Bft) O-NO 67 0 min 0,0 UV-I 1,9 C 6,4 C 4,5 km/h (1 Bft)
13.02.2014 18:41 6,7 C 13,2 C 6,3 C 6,7 C 6,6 C 0,0 C 72 % 77 % 0 % 996,3 hPa 0,0 l/m 2,7 km/h (1 Bft) N 0 0 min 0,0 UV-I 2,0 C 6,6 C 3,4 km/h (1 Bft)
13.02.2014 18:59 6,9 C 13,1 C 6,4 C 7,0 C 7,0 C 0,1 C 71 % 76 % 0 % 996,5 hPa 0,0 l/m 3,1 km/h (1 Bft) S 180 0 min 0,0 UV-I 2,0 C 7,0 C 2,3 km/h (1 Bft)
13.02.2014 19:00 6,9 C 13,1 C 6,4 C 7,0 C 7,0 C 0,1 C 71 % 76 % 0 % 996,5 hPa 0,0 l/m 3,1 km/h (1 Bft) S 180 0 min 0,0 UV-I 2,0 C 7,0 C 2,3 km/h (1 Bft)
13.02.2014 19:05 7,0 C 13,1 C 6,5 C 7,1 C 7,1 C 0,1 C 70 % 75 % 0 % 996,5 hPa 0,0 l/m 2,9 km/h (1 Bft) S 180 0 min 0,0 UV-I 1,9 C 7,1 C 4,0 km/h (1 Bft)
13.02.2014 19:10 7,2 C 13,1 C 6,7 C 7,2 C 7,2 C 0,0 C 70 % 75 % 0 % 996,3 hPa 0,0 l/m 2,7 km/h (1 Bft) NO 45 0 min 0,0 UV-I 2,1 C 7,2 C 2,9 km/h (1 Bft)
13.02.2014 19:15 7,3 C 13,1 C 6,8 C 7,4 C 7,4 C 0,1 C 69 % 75 % 0 % 996,3 hPa 0,0 l/m 3,5 km/h (1 Bft) W 270 0 min 0,0 UV-I 2,0 C 7,4 C 2,9 km/h (1 Bft)
13.02.2014 19:20 7,7 C 13,3 C 7,1 C 7,4 C 6,8 C 0,0 C 69 % 75 % 0 % 996,3 hPa 0,0 l/m 6,4 km/h (2 Bft) SO 135 0 min 0,0 UV-I 2,4 C 5,7 C 9,8 km/h (2 Bft)
13.02.2014 19:25 8,0 C 13,3 C 7,3 C 7,6 C 6,9 C 0,0 C 69 % 74 % 0 % 996,3 hPa 0,0 l/m 7,6 km/h (2 Bft) NO 45 0 min 0,0 UV-I 2,7 C 5,5 C 7,7 km/h (2 Bft)
13.02.2014 19:30 8,3 C 13,3 C 7,5 C 8,0 C 7,0 C 0,0 C 68 % 74 % 0 % 996,1 hPa 0,0 l/m 9,2 km/h (2 Bft) S 180 0 min 0,0 UV-I 2,7 C 5,2 C 13,2 km/h (3 Bft)
13.02.2014 19:35 8,3 C 13,3 C 7,6 C 8,1 C 7,1 C 0,0 C 68 % 74 % 0 % 996,1 hPa 0,0 l/m 9,3 km/h (2 Bft) SW 225 0 min 0,0 UV-I 2,7 C 5,3 C 8,0 km/h (2 Bft)
13.02.2014 19:40 8,3 C 13,2 C 7,5 C 8,0 C 7,4 C 0,0 C 68 % 74 % 0 % 996,1 hPa 0,0 l/m 7,2 km/h (2 Bft) S 180 0 min 0,0 UV-I 2,7 C 6,1 C 6,8 km/h (2 Bft)
13.02.2014 19:45 8,3 C 13,2 C 7,7 C 8,0 C 7,3 C 0,0 C 68 % 74 % 0 % 996,1 hPa 0,0 l/m 7,4 km/h (2 Bft) SO 135 0 min 0,0 UV-I 2,7 C 6,0 C 9,5 km/h (2 Bft)
13.02.2014 19:50 8,4 C 13,2 C 7,6 C 8,1 C 7,0 C 0,0 C 68 % 74 % 0 % 996,0 hPa 0,0 l/m 9,2 km/h (2 Bft) W-SW 247 0 min 0,0 UV-I 2,8 C 5,2 C 13,5 km/h (3 Bft)
13.02.2014 19:55 8,4 C 13,2 C 7,7 C 8,1 C 7,1 C 0,0 C 69 % 74 % 0 % 996,0 hPa 0,0 l/m 9,0 km/h (2 Bft) S-SO 157 0 min 0,0 UV-I 3,0 C 5,4 C 12,2 km/h (2 Bft)
13.02.2014 20:00 8,4 C 13,2 C 7,7 C 8,1 C 6,8 C 0,0 C 70 % 75 % 0 % 996,0 hPa 0,0 l/m 10,1 km/h (2 Bft) S-SO 157 0 min 0,0 UV-I 3,3 C 4,8 C 6,4 km/h (2 Bft)
13.02.2014 20:05 8,3 C 13,2 C 7,6 C 8,0 C 6,7 C 0,0 C 70 % 75 % 0 % 996,0 hPa 0,0 l/m 9,5 km/h (2 Bft) O-SO 112 0 min 0,0 UV-I 3,2 C 4,8 C 5,6 km/h (1 Bft)
13.02.2014 20:10 8,2 C 13,2 C 7,6 C 7,7 C 6,7 C 0,0 C 71 % 76 % 0 % 996,0 hPa 0,0 l/m 8,2 km/h (2 Bft) N-NO 22 0 min 0,0 UV-I 3,3 C 5,1 C 19,2 km/h (3 Bft)
13.02.2014 20:15 8,1 C 13,2 C 7,6 C 7,6 C 6,7 C 0,0 C 72 % 76 % 0 % 996,0 hPa 0,0 l/m 8,2 km/h (2 Bft) SO 135 0 min 0,0 UV-I 3,4 C 5,1 C 8,4 km/h (2 Bft)
13.02.2014 20:20 8,1 C 13,2 C 7,7 C 7,7 C 7,0 C 0,0 C 72 % 76 % 0 % 996,0 hPa 0,0 l/m 7,1 km/h (2 Bft) S-SW 202 0 min 0,0 UV-I 3,4 C 5,7 C 6,0 km/h (2 Bft)
13.02.2014 20:25 8,0 C 13,2 C 7,6 C 7,7 C 7,1 C 0,0 C 72 % 76 % 0 % 996,0 hPa 0,0 l/m 6,3 km/h (2 Bft) S 180 0 min 0,0 UV-I 3,3 C 6,0 C 18,7 km/h (3 Bft)
13.02.2014 20:30 8,0 C 13,3 C 7,6 C 7,6 C 6,9 C 0,0 C 73 % 77 % 0 % 996,8 hPa 0,0 l/m 6,9 km/h (2 Bft) S-SO 157 0 min 0,0 UV-I 3,5 C 5,6 C 8,9 km/h (2 Bft)
13.02.2014 20:35 8,0 C 13,3 C 7,6 C 7,5 C 6,6 C 0,0 C 73 % 77 % 0 % 996,8 hPa 0,0 l/m 7,6 km/h (2 Bft) S-SO 157 0 min 0,0 UV-I 3,5 C 5,1 C 7,2 km/h (2 Bft)
13.02.2014 20:40 7,9 C 13,3 C 7,5 C 7,6 C 6,2 C 0,0 C 73 % 77 % 0 % 996,8 hPa 0,0 l/m 9,3 km/h (2 Bft) W 270 0 min 0,0 UV-I 3,4 C 4,2 C 30,4 km/h (5 Bft)
13.02.2014 20:45 7,9 C 13,3 C 7,4 C 7,5 C 5,6 C 0,0 C 73 % 77 % 0 % 996,8 hPa 0,0 l/m 13,2 km/h (3 Bft) W-SW 247 0 min 0,0 UV-I 3,4 C 2,8 C 23,0 km/h (4 Bft)
13.02.2014 20:50 7,9 C 13,3 C 7,5 C 7,4 C 5,4 C 0,0 C 73 % 77 % 0 % 996,6 hPa 0,0 l/m 13,8 km/h (3 Bft) SW 225 0 min 0,0 UV-I 3,4 C 2,4 C 13,5 km/h (3 Bft)
13.02.2014 20:55 7,9 C 13,3 C 7,5 C 7,4 C 5,5 C 0,0 C 73 % 77 % 0 % 996,6 hPa 0,0 l/m 13,5 km/h (3 Bft) O 90 0 min 0,0 UV-I 3,4 C 2,6 C 16,1 km/h (3 Bft)
13.02.2014 21:00 7,9 C 13,3 C 7,4 C 7,3 C 5,2 C 0,0 C 73 % 77 % 0 % 996,6 hPa 0,0 l/m 15,4 km/h (3 Bft) S 180 0 min 0,0 UV-I 3,4 C 1,9 C 31,1 km/h (5 Bft)
13.02.2014 21:05 7,9 C 13,3 C 7,3 C 7,0 C 5,2 C 0,0 C 73 % 77 % 0 % 996,6 hPa 0,0 l/m 15,6 km/h (3 Bft) S-SW 202 0 min 0,0 UV-I 3,4 C 1,9 C 12,2 km/h (2 Bft)
13.02.2014 21:10 7,6 C 13,3 C 7,2 C 7,1 C 5,1 C 0,0 C 74 % 78 % 0 % 997,0 hPa 0,0 l/m 15,3 km/h (3 Bft) SW 225 0 min 0,0 UV-I 3,3 C 1,8 C 16,4 km/h (3 Bft)
13.02.2014 21:15 7,7 C 13,3 C 7,2 C 7,1 C 5,2 C 0,0 C 74 % 78 % 0 % 997,0 hPa 0,0 l/m 14,5 km/h (3 Bft) W-SW 247 0 min 0,0 UV-I 3,4 C 2,1 C 21,1 km/h (4 Bft)
13.02.2014 21:20 7,5 C 13,3 C 7,1 C 6,7 C 5,2 C 0,0 C 75 % 78 % 0 % 997,0 hPa 0,0 l/m 13,4 km/h (3 Bft) S 180 0 min 0,0 UV-I 3,4 C 2,3 C 14,2 km/h (3 Bft)
13.02.2014 21:25 7,5 C 13,3 C 7,1 C 7,0 C 5,1 C 0,0 C 75 % 78 % 0 % 997,0 hPa 0,0 l/m 13,7 km/h (3 Bft) W-SW 247 0 min 0,0 UV-I 3,4 C 2,1 C 15,3 km/h (3 Bft)
13.02.2014 21:30 7,4 C 13,3 C 7,1 C 6,9 C 5,0 C 0,0 C 75 % 78 % 0 % 996,9 hPa 0,0 l/m 13,7 km/h (3 Bft) S-SW 202 0 min 0,0 UV-I 3,3 C 2,0 C 15,8 km/h (3 Bft)
13.02.2014 21:35 7,5 C 13,3 C 7,1 C 6,9 C 4,8 C 0,0 C 75 % 78 % 0 % 996,9 hPa 0,0 l/m 14,0 km/h (3 Bft) SW 225 0 min 0,0 UV-I 3,4 C 1,7 C 20,0 km/h (4 Bft)
13.02.2014 21:40 7,3 C 13,3 C 7,1 C 6,7 C 4,7 C 0,0 C 74 % 78 % 0 % 996,9 hPa 0,0 l/m 15,0 km/h (3 Bft) W-SW 247 0 min 0,0 UV-I 3,0 C 1,4 C 19,0 km/h (3 Bft)
13.02.2014 21:45 7,3 C 13,3 C 6,9 C 6,4 C 4,7 C 0,0 C 74 % 78 % 0 % 996,9 hPa 0,0 l/m 15,0 km/h (3 Bft) W-SW 247 0 min 0,0 UV-I 3,0 C 1,4 C 16,7 km/h (3 Bft)
13.02.2014 21:50 7,2 C 13,3 C 6,9 C 6,6 C 4,4 C 0,0 C 74 % 78 % 0 % 997,6 hPa 0,0 l/m 15,1 km/h (3 Bft) W-SW 247 0 min 0,0 UV-I 2,9 C 1,0 C 17,2 km/h (3 Bft)
13.02.2014 21:55 7,2 C 13,3 C 6,7 C 6,6 C 4,3 C 0,0 C 75 % 79 % 0 % 997,6 hPa 0,0 l/m 15,3 km/h (3 Bft) W 270 0 min 0,0 UV-I 3,1 C 0,8 C 15,3 km/h (3 Bft)
13.02.2014 22:00 7,1 C 13,3 C 6,7 C 6,5 C 4,4 C 0,0 C 75 % 79 % 0 % 997,6 hPa 0,0 l/m 13,5 km/h (3 Bft) S 180 0 min 0,0 UV-I 3,0 C 1,3 C 18,3 km/h (3 Bft)
13.02.2014 22:05 7,0 C 13,3 C 6,7 C 6,4 C 4,2 C 0,0 C 76 % 79 % 0 % 997,6 hPa 0,0 l/m 13,8 km/h (3 Bft) SW 225 0 min 0,0 UV-I 3,1 C 1,0 C 29,1 km/h (5 Bft)
13.02.2014 22:07 6,9 C 13,3 C 6,5 C 5,8 C 3,9 C 0,0 C 76 % 79 % 0 % 998,4 hPa 0,0 l/m 16,3 km/h (3 Bft) W-SW 247 0 min 0,0 UV-I 3,0 C 0,2 C 22,2 km/h (4 Bft)
13.02.2014 22:12 6,8 C 13,3 C 6,5 C 6,1 C 3,8 C 0,0 C 76 % 79 % 0 % 998,4 hPa 0,0 l/m 15,6 km/h (3 Bft) S 180 0 min 0,0 UV-I 2,9 C 0,2 C 11,9 km/h (2 Bft)
13.02.2014 22:18 6,7 C 13,3 C 6,4 C 5,7 C 3,8 C 0,0 C 76 % 79 % 0 % 998,4 hPa 0,0 l/m 15,8 km/h (3 Bft) S-SW 202 0 min 0,0 UV-I 2,8 C 0,1 C 15,4 km/h (3 Bft)
13.02.2014 22:20 6,7 C 13,3 C 6,4 C 5,7 C 3,8 C 0,0 C 76 % 79 % 0 % 998,4 hPa 0,0 l/m 15,8 km/h (3 Bft) S-SW 202 0 min 0,0 UV-I 2,8 C 0,1 C 15,4 km/h (3 Bft)
13.02.2014 22:29 6,7 C 13,4 C 6,3 C 6,0 C 3,5 C 0,0 C 76 % 79 % 0 % 998,6 hPa 0,0 l/m 16,7 km/h (3 Bft) SW 225 0 min 0,0 UV-I 2,8 C -0,4 C 36,4 km/h (5 Bft)
13.02.2014 22:35 6,4 C 13,4 C 6,3 C 5,7 C 3,1 C 0,0 C 77 % 80 % 0 % 998,6 hPa 0,0 l/m 16,9 km/h (3 Bft) S-SW 202 0 min 0,0 UV-I 2,7 C -0,9 C 24,0 km/h (4 Bft)
13.02.2014 22:40 6,3 C 13,4 C 6,0 C 5,5 C 2,4 C 0,0 C 77 % 80 % 0 % 998,6 hPa 0,0 l/m 17,2 km/h (3 Bft) SW 225 0 min 0,0 UV-I 2,6 C -1,8 C 19,5 km/h (3 Bft)
13.02.2014 22:45 6,3 C 13,4 C 5,9 C 5,4 C 2,6 C 0,0 C 78 % 80 % 0 % 998,6 hPa 0,0 l/m 15,9 km/h (3 Bft) W-SW 247 0 min 0,0 UV-I 2,8 C -1,4 C 17,4 km/h (3 Bft)
13.02.2014 22:50 6,1 C 13,4 C 5,9 C 5,3 C 2,8 C 0,0 C 78 % 81 % 0 % 998,9 hPa 0,0 l/m 14,6 km/h (3 Bft) S-SW 202 0 min 0,0 UV-I 2,6 C -0,9 C 15,4 km/h (3 Bft)
13.02.2014 22:55 6,0 C 13,4 C 5,9 C 5,3 C 2,7 C 0,0 C 78 % 81 % 0 % 998,9 hPa 0,0 l/m 15,0 km/h (3 Bft) W-SW 247 0 min 0,0 UV-I 2,5 C -1,1 C 18,2 km/h (3 Bft)
13.02.2014 23:00 5,9 C 13,4 C 5,6 C 5,1 C 1,9 C 0,0 C 79 % 81 % 0 % 998,9 hPa 0,0 l/m 18,2 km/h (3 Bft) S 180 0 min 0,0 UV-I 2,5 C -2,6 C 40,4 km/h (6 Bft)
13.02.2014 23:05 5,8 C 13,4 C 5,5 C 4,8 C 1,5 C 0,0 C 80 % 82 % 0 % 998,9 hPa 0,0 l/m 19,3 km/h (3 Bft) W-SW 247 0 min 0,0 UV-I 2,6 C -3,3 C 22,4 km/h (4 Bft)
13.02.2014 23:10 5,6 C 13,4 C 5,4 C 4,6 C 1,3 C 0,0 C 79 % 82 % 0 % 999,8 hPa 0,0 l/m 19,0 km/h (3 Bft) S 180 0 min 0,0 UV-I 2,3 C -3,5 C 19,0 km/h (3 Bft)
13.02.2014 23:15 5,6 C 13,4 C 5,4 C 4,6 C 1,4 C 0,0 C 78 % 81 % 0 % 999,8 hPa 0,0 l/m 19,2 km/h (3 Bft) SW 225 0 min 0,0 UV-I 2,1 C -3,4 C 20,8 km/h (4 Bft)
13.02.2014 23:20 5,7 C 13,4 C 5,4 C 4,8 C 1,8 C 0,0 C 77 % 81 % 0 % 999,8 hPa 0,0 l/m 18,0 km/h (3 Bft) SW 225 0 min 0,0 UV-I 2,0 C -2,7 C 20,6 km/h (4 Bft)
13.02.2014 23:25 5,7 C 13,4 C 5,5 C 4,8 C 2,0 C 0,0 C 77 % 80 % 0 % 999,8 hPa 0,0 l/m 18,8 km/h (3 Bft) SW 225 0 min 0,0 UV-I 2,0 C -2,6 C 27,0 km/h (4 Bft)
13.02.2014 23:30 5,7 C 13,4 C 5,5 C 4,9 C 2,1 C 0,0 C 77 % 80 % 0 % 1000,3 hPa 0,0 l/m 18,8 km/h (3 Bft) W-SW 247 0 min 0,0 UV-I 2,0 C -2,4 C 19,2 km/h (3 Bft)
13.02.2014 23:35 5,7 C 13,4 C 5,5 C 4,9 C 2,3 C 0,0 C 77 % 80 % 0 % 1000,3 hPa 0,0 l/m 17,2 km/h (3 Bft) W-SW 247 0 min 0,0 UV-I 2,0 C -1,9 C 16,7 km/h (3 Bft)
13.02.2014 23:40 5,7 C 13,3 C 5,4 C 5,0 C 2,5 C 0,0 C 76 % 79 % 0 % 1000,3 hPa 0,0 l/m 16,4 km/h (3 Bft) S-SW 202 0 min 0,0 UV-I 1,8 C -1,6 C 21,2 km/h (4 Bft)
13.02.2014 23:45 5,7 C 13,3 C 5,5 C 5,0 C 2,4 C 0,0 C 76 % 79 % 0 % 1000,3 hPa 0,0 l/m 16,9 km/h (3 Bft) SW 225 0 min 0,0 UV-I 1,8 C -1,8 C 28,6 km/h (4 Bft)
13.02.2014 23:50 5,7 C 13,3 C 5,5 C 4,6 C 2,4 C 0,0 C 75 % 79 % 0 % 1000,4 hPa 0,0 l/m 17,5 km/h (3 Bft) S-SW 202 0 min 0,0 UV-I 1,6 C -1,9 C 21,7 km/h (4 Bft)
13.02.2014 23:55 5,8 C 13,3 C 5,5 C 4,7 C 2,4 C 0,0 C 75 % 79 % 0 % 1000,4 hPa 0,0 l/m 17,7 km/h (3 Bft) SW 225 0 min 0,0 UV-I 1,7 C -1,9 C 20,6 km/h (4 Bft)
_ Min-Zeit 00:05 04:25 00:00 00:05 00:10 00:00 04:20 04:25 00:00 19:50 - 02:50 - - - 00:00 00:05 23:10 01:05
Minimum _ 1,3 C 11,9 C 0,7 C 0,9 C 0,0 C 0,0 C 57 % 65 % 0 % 996,0 hPa - 0,0 km/h (0 Bft) - - - 0,0 UV-I -3,0 C -3,5 C 0,0 km/h (0 Bft)
_ Max-Zeit 13:15 22:29 13:10 12:35 12:35 12:35 23:05 23:05 12:35 00:00 00:00 23:05 - - 00:00 00:00 20:30 12:35 23:00
Maximum _ 9,1 C 13,4 C 9,3 C 11,8 C 11,8 C 3,2 C 80 % 82 % 84 % 1008,6 hPa 0,0 l/m 19,3 km/h
W-SW (3 Bft)
- - 0 min 0,0 UV-I 3,5 C 11,8 C 40,4 km/h
S (6 Bft)
Durchschnitt _ 6,1 C 12,6 C 5,7 C 6,1 C 5,4 C 0,2 C 69 % 74 % 6 % 1002,2 hPa #0,0 l/m 5,7 km/h (1 Bft) O-NO - #0 min. 0,0 UV-I 0,9 C 4,5 C 7,5 km/h (2 Bft)
2014 www.wetterstation-wechselburg.de